BAW185 EGLL-KEWR

Flight info

Callsign BAW185
Flight time N/A
Altitude 36000
Route ULTIB1J ULTIB T420 TNT UL28 PENIL M144 BAGSO DCT DOGAL/M083F370 NATD JOOPY/N0468F380 DCT DAYSE DCT COPLY DCT BOS DCT NELIE FLOSI4
Aircraft B77W/H-SDE1E3FGHIJ3J4J5J6M1M2P2RWXYZ/LB1D1

Departure

Time 2026-05-08 06:03
Airport London Heathrow Airport (EGLL)

Arrival

Time N/A
Airport Newark Liberty International Airport (KEWR)
Time Latitude Longitude Altitude Speed Heading
2026-05-08 05:53 51.46984 -0.47735 92 ft 0 kts 90°
2026-05-08 05:57 51.46984 -0.47738 92 ft 3 kts 90°
2026-05-08 05:58 51.46984 -0.47768 93 ft 3 kts 90°
2026-05-08 05:58 51.46984 -0.47799 92 ft 3 kts 81°
2026-05-08 05:58 51.46983 -0.47831 92 ft 3 kts 101°
2026-05-08 05:58 51.46989 -0.47861 90 ft 3 kts 122°
2026-05-08 05:59 51.46993 -0.47870 93 ft 0 kts 131°
2026-05-08 05:59 51.46973 -0.47865 94 ft 4 kts 178°
2026-05-08 06:00 51.46938 -0.47867 91 ft 8 kts 182°
2026-05-08 06:00 51.46860 -0.47870 91 ft 12 kts 181°
2026-05-08 06:00 51.46778 -0.47867 91 ft 12 kts 180°
2026-05-08 06:00 51.46696 -0.47873 91 ft 12 kts 193°
2026-05-08 06:01 51.46656 -0.47977 96 ft 12 kts 268°
2026-05-08 06:01 51.46653 -0.48110 92 ft 12 kts 269°
2026-05-08 06:01 51.46627 -0.48194 94 ft 11 kts 206°
2026-05-08 06:01 51.46513 -0.48201 98 ft 11 kts 154°
2026-05-08 06:02 51.46481 -0.47995 92 ft 35 kts 90°
2026-05-08 06:02 51.46482 -0.47276 93 ft 99 kts 90°
2026-05-08 06:02 51.46493 -0.45833 92 ft 160 kts 88°
2026-05-08 06:02 51.46495 -0.43889 456 ft 178 kts 92°
2026-05-08 06:03 51.46420 -0.41800 794 ft 201 kts 81°
2026-05-08 06:03 51.47138 -0.39861 1319 ft 213 kts 44°
2026-05-08 06:03 51.48199 -0.38132 1844 ft 224 kts 53°
2026-05-08 06:03 51.49242 -0.36062 2167 ft 250 kts 53°
2026-05-08 06:04 51.50367 -0.33858 2898 ft 259 kts 52°
2026-05-08 06:04 51.51534 -0.31620 3773 ft 262 kts 52°
2026-05-08 06:04 51.52496 -0.29143 4467 ft 264 kts 71°
2026-05-08 06:04 51.53074 -0.26324 5246 ft 267 kts 73°
2026-05-08 06:05 51.53666 -0.23535 5873 ft 269 kts 72°
2026-05-08 06:05 51.54305 -0.20685 5992 ft 273 kts 67°
2026-05-08 06:05 51.55503 -0.18345 6052 ft 278 kts 31°
2026-05-08 06:05 51.57364 -0.17624 6689 ft 281 kts 354°
2026-05-08 06:06 51.59155 -0.18724 7527 ft 277 kts 320°
2026-05-08 06:06 51.60555 -0.20819 8243 ft 278 kts 315°
2026-05-08 06:06 51.62066 -0.22820 9022 ft 282 kts 321°
2026-05-08 06:06 51.63614 -0.24742 9856 ft 281 kts 319°
2026-05-08 06:07 51.65165 -0.26650 10530 ft 289 kts 322°
2026-05-08 06:07 51.66888 -0.28553 10782 ft 314 kts 324°
2026-05-08 06:07 51.68807 -0.30522 10989 ft 340 kts 326°
2026-05-08 06:07 51.70895 -0.32580 11255 ft 362 kts 327°
2026-05-08 06:08 51.73098 -0.34705 11900 ft 374 kts 327°
2026-05-08 06:08 51.75364 -0.36875 12734 ft 382 kts 327°
2026-05-08 06:08 51.77663 -0.39077 13659 ft 387 kts 327°
2026-05-08 06:08 51.79997 -0.41318 14512 ft 393 kts 327°
2026-05-08 06:09 51.82369 -0.43612 15337 ft 400 kts 327°
2026-05-08 06:09 51.84776 -0.45962 16167 ft 406 kts 327°
2026-05-08 06:09 51.87206 -0.48343 17028 ft 411 kts 327°
2026-05-08 06:09 51.89676 -0.50763 17895 ft 417 kts 327°
2026-05-08 06:10 51.92178 -0.53215 18662 ft 422 kts 327°
2026-05-08 06:10 51.94702 -0.55691 19423 ft 426 kts 327°
2026-05-08 06:10 51.97221 -0.58153 20089 ft 434 kts 327°
2026-05-08 06:10 51.99841 -0.60709 20617 ft 442 kts 327°
2026-05-08 06:11 52.02462 -0.63264 21611 ft 438 kts 327°
2026-05-08 06:11 52.05074 -0.65817 22553 ft 438 kts 327°
2026-05-08 06:11 52.07700 -0.68388 23278 ft 442 kts 327°
2026-05-08 06:11 52.10354 -0.70994 23868 ft 448 kts 327°
2026-05-08 06:12 52.13038 -0.73633 24408 ft 452 kts 327°
2026-05-08 06:12 52.15741 -0.76302 24986 ft 456 kts 327°
2026-05-08 06:12 52.18463 -0.79001 25559 ft 459 kts 327°
2026-05-08 06:12 52.21169 -0.81688 26103 ft 462 kts 327°
2026-05-08 06:13 52.23925 -0.84427 26615 ft 466 kts 326°
2026-05-08 06:13 52.26713 -0.87198 27121 ft 470 kts 327°
2026-05-08 06:13 52.29513 -0.89974 27641 ft 473 kts 326°
2026-05-08 06:13 52.32334 -0.92772 28141 ft 476 kts 326°
2026-05-08 06:14 52.35177 -0.95596 28633 ft 479 kts 326°
2026-05-08 06:14 52.38036 -0.98441 29072 ft 482 kts 326°
2026-05-08 06:14 52.40833 -1.01229 29543 ft 484 kts 327°
2026-05-08 06:14 52.43715 -1.04107 29949 ft 486 kts 326°
2026-05-08 06:15 52.46607 -1.07000 30274 ft 489 kts 326°
2026-05-08 06:15 52.49486 -1.09886 30548 ft 491 kts 326°
2026-05-08 06:15 52.52405 -1.12839 30855 ft 493 kts 326°
2026-05-08 06:15 52.55329 -1.15811 31166 ft 493 kts 326°
2026-05-08 06:16 52.58248 -1.18778 31456 ft 495 kts 326°
2026-05-08 06:16 52.61184 -1.21751 31680 ft 496 kts 326°
2026-05-08 06:16 52.64132 -1.24736 31881 ft 498 kts 326°
2026-05-08 06:16 52.67092 -1.27738 32080 ft 500 kts 326°
2026-05-08 06:17 52.73023 -1.33772 32607 ft 499 kts 326°
2026-05-08 06:17 52.75976 -1.36777 33021 ft 498 kts 326°
2026-05-08 06:17 52.78915 -1.39771 33393 ft 495 kts 326°
2026-05-08 06:18 52.81808 -1.42723 33722 ft 494 kts 326°
2026-05-08 06:18 52.84728 -1.45709 34007 ft 493 kts 326°
2026-05-08 06:18 52.87643 -1.48696 34230 ft 492 kts 326°
2026-05-08 06:18 52.90552 -1.51683 34420 ft 493 kts 326°
2026-05-08 06:19 52.93448 -1.54658 34859 ft 486 kts 326°
2026-05-08 06:19 52.96312 -1.57608 35116 ft 485 kts 326°
2026-05-08 06:19 53.02067 -1.63549 35338 ft 489 kts 326°
2026-05-08 06:20 53.04934 -1.66513 35864 ft 481 kts 326°
2026-05-08 06:20 53.07763 -1.69444 36072 ft 475 kts 325°
2026-05-08 06:20 53.10522 -1.72312 36044 ft 458 kts 325°
2026-05-08 06:20 53.13178 -1.75079 36041 ft 443 kts 325°
2026-05-08 06:21 53.15753 -1.77767 36042 ft 428 kts 325°
2026-05-08 06:21 53.18223 -1.80350 36061 ft 423 kts 325°
2026-05-08 06:21 53.22897 -1.86165 36065 ft 417 kts 310°
2026-05-08 06:22 53.26244 -1.93972 36071 ft 413 kts 295°
2026-05-08 06:22 53.28732 -2.02513 36077 ft 414 kts 294°
2026-05-08 06:23 53.31259 -2.11192 36086 ft 415 kts 295°
2026-05-08 06:23 53.33824 -2.19852 36069 ft 415 kts 295°
2026-05-08 06:24 53.36202 -2.28554 36072 ft 412 kts 287°
2026-05-08 06:24 53.37942 -2.37666 36077 ft 409 kts 286°
2026-05-08 06:25 53.39644 -2.46762 36067 ft 408 kts 286°
2026-05-08 06:25 53.41355 -2.55826 36064 ft 407 kts 286°
2026-05-08 06:26 53.43054 -2.64821 36062 ft 406 kts 286°
2026-05-08 06:26 53.44750 -2.73834 36053 ft 404 kts 286°
2026-05-08 06:27 53.46163 -2.81374 36052 ft 403 kts 286°
2026-05-08 06:27 53.47825 -2.90287 36062 ft 402 kts 286°
2026-05-08 06:28 53.49476 -2.99259 36053 ft 402 kts 286°
2026-05-08 06:28 53.51093 -3.08124 36052 ft 402 kts 286°
2026-05-08 06:29 53.52725 -3.17106 36056 ft 402 kts 285°
2026-05-08 06:29 53.54350 -3.26087 36053 ft 401 kts 285°
2026-05-08 06:30 53.55955 -3.34993 36051 ft 400 kts 285°
2026-05-08 06:30 53.57559 -3.43940 36053 ft 399 kts 285°
2026-05-08 06:31 53.59170 -3.52888 36053 ft 398 kts 285°
2026-05-08 06:31 53.60778 -3.61809 36054 ft 398 kts 285°
2026-05-08 06:32 53.61841 -3.70915 36051 ft 395 kts 274°
2026-05-08 06:32 53.62207 -3.80147 36052 ft 395 kts 273°
2026-05-08 06:33 53.62582 -3.89318 36055 ft 395 kts 273°
2026-05-08 06:33 53.62965 -3.98554 36052 ft 395 kts 273°
2026-05-08 06:34 53.63321 -4.07642 36055 ft 395 kts 273°
2026-05-08 06:34 53.63674 -4.16890 36064 ft 395 kts 272°
2026-05-08 06:35 53.64019 -4.26154 36053 ft 396 kts 272°
2026-05-08 06:35 53.64355 -4.35360 36051 ft 396 kts 272°
2026-05-08 06:36 53.64681 -4.44628 36045 ft 396 kts 272°
2026-05-08 06:36 53.65001 -4.53885 36046 ft 395 kts 272°
2026-05-08 06:37 53.65316 -4.63149 36056 ft 395 kts 272°
2026-05-08 06:37 53.65625 -4.72418 36060 ft 395 kts 272°
2026-05-08 06:38 53.65924 -4.81612 36047 ft 395 kts 271°
2026-05-08 06:38 53.66226 -4.90858 36047 ft 394 kts 272°
2026-05-08 06:39 53.66531 -5.00048 36045 ft 393 kts 271°
2026-05-08 06:39 53.66825 -5.09104 36045 ft 392 kts 271°
2026-05-08 06:40 53.67108 -5.18229 36045 ft 392 kts 271°
2026-05-08 06:40 53.67373 -5.27410 36052 ft 392 kts 271°
2026-05-08 06:41 53.67632 -5.36595 36050 ft 391 kts 271°
2026-05-08 06:41 53.67886 -5.45761 36042 ft 391 kts 271°
2026-05-08 06:42 53.68323 -5.54908 36048 ft 391 kts 275°
2026-05-08 06:42 53.68994 -5.64021 36043 ft 391 kts 275°
2026-05-08 06:43 53.69666 -5.73086 36047 ft 392 kts 275°
2026-05-08 06:43 53.70326 -5.82216 36043 ft 392 kts 275°
2026-05-08 06:44 53.70975 -5.91367 36044 ft 392 kts 275°
2026-05-08 06:44 53.71603 -6.00353 36041 ft 392 kts 275°
2026-05-08 06:45 53.72235 -6.09506 36039 ft 392 kts 274°
2026-05-08 06:45 53.72857 -6.18617 36038 ft 393 kts 274°
2026-05-08 06:46 53.73475 -6.27786 36052 ft 393 kts 274°
2026-05-08 06:46 53.74088 -6.36970 36038 ft 393 kts 274°
2026-05-08 06:47 53.74692 -6.46136 36032 ft 392 kts 274°
2026-05-08 06:47 53.75289 -6.55286 36033 ft 391 kts 274°
2026-05-08 06:48 53.75872 -6.64357 36030 ft 390 kts 274°
2026-05-08 06:48 53.76452 -6.73470 36027 ft 389 kts 274°
2026-05-08 06:49 53.77023 -6.82569 36039 ft 389 kts 273°
2026-05-08 06:49 53.77587 -6.91661 36024 ft 388 kts 273°
2026-05-08 06:50 53.78135 -7.00598 36030 ft 388 kts 273°
2026-05-08 06:50 53.78680 -7.09610 36053 ft 388 kts 273°
2026-05-08 06:51 53.79222 -7.18689 36030 ft 388 kts 273°
2026-05-08 06:51 53.79758 -7.27781 36022 ft 388 kts 273°
2026-05-08 06:52 53.80288 -7.36881 36032 ft 388 kts 272°
2026-05-08 06:52 53.80811 -7.45998 36023 ft 388 kts 272°
2026-05-08 06:53 53.81323 -7.55029 36016 ft 388 kts 272°
2026-05-08 06:53 53.81831 -7.64111 36012 ft 387 kts 272°
2026-05-08 06:54 53.82331 -7.73185 36014 ft 387 kts 272°
2026-05-08 06:54 53.82825 -7.82272 36008 ft 387 kts 272°
2026-05-08 06:55 53.83311 -7.91343 36015 ft 387 kts 272°
2026-05-08 06:55 53.83781 -8.00235 36015 ft 386 kts 272°
2026-05-08 06:56 53.84253 -8.09290 36011 ft 386 kts 272°
2026-05-08 06:56 53.84717 -8.18341 36014 ft 386 kts 272°
2026-05-08 06:57 53.85175 -8.27404 36023 ft 386 kts 272°
2026-05-08 06:57 53.85626 -8.36471 36015 ft 386 kts 271°
2026-05-08 06:58 53.86067 -8.45484 36023 ft 386 kts 271°
2026-05-08 06:58 53.86505 -8.54543 36018 ft 386 kts 271°
2026-05-08 06:59 53.86936 -8.63616 36019 ft 386 kts 271°
2026-05-08 06:59 53.87359 -8.72678 36023 ft 386 kts 271°
2026-05-08 07:00 53.87776 -8.81736 36018 ft 386 kts 271°
2026-05-08 07:00 53.88186 -8.90817 36028 ft 386 kts 271°
2026-05-08 07:01 53.88587 -8.99855 36033 ft 387 kts 271°
2026-05-08 07:01 53.88978 -9.08801 36023 ft 387 kts 270°
2026-05-08 07:02 53.89369 -9.17901 36024 ft 387 kts 270°
2026-05-08 07:02 53.89750 -9.26938 36046 ft 387 kts 270°
2026-05-08 07:03 53.90127 -9.36057 36039 ft 388 kts 270°
2026-05-08 07:03 53.90498 -9.45182 36038 ft 387 kts 270°
2026-05-08 07:04 53.90862 -9.54304 36058 ft 386 kts 270°
2026-05-08 07:04 53.91216 -9.63338 36055 ft 385 kts 270°
2026-05-08 07:05 53.91563 -9.72399 36045 ft 384 kts 270°
2026-05-08 07:05 53.91904 -9.81450 36057 ft 384 kts 270°
2026-05-08 07:06 53.92237 -9.90500 36071 ft 383 kts 270°
2026-05-08 07:06 53.92563 -9.99547 36061 ft 384 kts 270°
2026-05-08 07:07 53.92876 -10.08408 36081 ft 386 kts 269°
2026-05-08 07:07 53.93190 -10.17513 36066 ft 387 kts 269°
2026-05-08 07:08 53.93499 -10.26633 36068 ft 388 kts 269°
2026-05-08 07:08 53.93801 -10.35786 36071 ft 388 kts 269°
2026-05-08 07:09 53.94097 -10.44939 36069 ft 389 kts 269°
2026-05-08 07:09 53.94386 -10.54101 36070 ft 389 kts 269°
2026-05-08 07:10 53.94668 -10.63277 36070 ft 389 kts 269°
2026-05-08 07:10 53.94942 -10.72393 36069 ft 389 kts 269°
2026-05-08 07:11 53.95210 -10.81567 36073 ft 389 kts 269°
2026-05-08 07:11 53.95471 -10.90730 36070 ft 388 kts 269°
2026-05-08 07:12 53.95725 -10.99891 36071 ft 388 kts 269°
2026-05-08 07:12 53.95967 -11.08889 36070 ft 388 kts 269°
2026-05-08 07:13 53.96206 -11.17993 36076 ft 388 kts 268°
2026-05-08 07:13 53.96438 -11.27153 36077 ft 388 kts 268°
2026-05-08 07:14 53.96664 -11.36326 36083 ft 389 kts 268°
2026-05-08 07:14 53.96847 -11.43984 36083 ft 390 kts 268°
2026-05-08 07:15 53.97096 -11.54705 36081 ft 391 kts 268°
2026-05-08 07:15 53.97303 -11.63943 36090 ft 392 kts 268°
2026-05-08 07:16 53.97470 -11.71657 36080 ft 393 kts 268°
2026-05-08 07:16 53.97695 -11.82460 36080 ft 394 kts 268°
2026-05-08 07:17 53.97852 -11.90260 36082 ft 394 kts 268°
2026-05-08 07:17 53.98032 -11.99521 36082 ft 395 kts 268°
2026-05-08 07:18 53.98203 -12.08693 36088 ft 395 kts 268°
2026-05-08 07:18 53.98370 -12.18015 36099 ft 395 kts 268°
2026-05-08 07:19 53.98530 -12.27348 36084 ft 395 kts 267°
2026-05-08 07:19 53.98682 -12.36679 36090 ft 395 kts 267°
2026-05-08 07:20 53.98827 -12.46026 36088 ft 395 kts 267°
2026-05-08 07:20 53.98964 -12.55302 36090 ft 395 kts 267°
2026-05-08 07:21 53.99095 -12.64652 36093 ft 395 kts 267°
2026-05-08 07:21 53.99218 -12.73998 36094 ft 396 kts 267°
2026-05-08 07:22 53.99335 -12.83372 36098 ft 397 kts 267°
2026-05-08 07:22 53.99444 -12.92757 36097 ft 398 kts 267°
2026-05-08 07:23 53.99545 -13.02020 36097 ft 398 kts 267°
2026-05-08 07:23 53.99640 -13.11390 36096 ft 399 kts 267°
2026-05-08 07:24 53.99728 -13.20842 36098 ft 400 kts 267°
2026-05-08 07:24 53.99809 -13.30299 36101 ft 400 kts 267°
2026-05-08 07:25 53.99882 -13.39725 36102 ft 401 kts 267°
2026-05-08 07:26 53.99979 -13.54009 36111 ft 403 kts 267°
2026-05-08 07:26 54.00034 -13.63553 36111 ft 405 kts 267°
2026-05-08 07:27 54.00082 -13.73148 36108 ft 406 kts 267°
2026-05-08 07:27 54.00122 -13.82770 36112 ft 408 kts 267°
2026-05-08 07:28 54.00155 -13.92362 36114 ft 409 kts 267°
2026-05-08 07:28 54.00180 -14.01870 36106 ft 410 kts 267°
2026-05-08 07:29 54.00198 -14.11566 36112 ft 410 kts 267°
2026-05-08 07:29 54.00207 -14.21280 36110 ft 411 kts 267°
2026-05-08 07:30 54.00210 -14.30983 36115 ft 410 kts 267°
2026-05-08 07:30 54.00204 -14.40683 36113 ft 410 kts 267°
2026-05-08 07:31 54.00190 -14.50311 36121 ft 410 kts 267°
2026-05-08 07:31 54.00169 -14.60017 36116 ft 410 kts 267°
2026-05-08 07:32 54.00140 -14.69727 36112 ft 410 kts 267°
2026-05-08 07:32 54.00103 -14.79434 36121 ft 410 kts 266°
2026-05-08 07:33 54.00059 -14.89137 36127 ft 411 kts 267°
2026-05-08 07:33 54.00007 -14.98854 36117 ft 412 kts 267°
2026-05-08 07:34 54.00084 -15.08389 36129 ft 413 kts 269°
2026-05-08 07:34 54.00312 -15.18172 36122 ft 414 kts 270°
2026-05-08 07:35 54.00531 -15.27978 36131 ft 415 kts 269°
2026-05-08 07:35 54.00720 -15.37741 36134 ft 415 kts 269°
2026-05-08 07:36 54.00892 -15.47560 36140 ft 416 kts 270°
2026-05-08 07:36 54.01053 -15.57422 36134 ft 417 kts 270°
2026-05-08 07:37 54.01207 -15.67300 36138 ft 418 kts 269°
2026-05-08 07:37 54.01351 -15.77126 36135 ft 419 kts 269°
2026-05-08 07:38 54.01489 -15.87033 36137 ft 419 kts 269°
2026-05-08 07:38 54.01620 -15.96963 36140 ft 420 kts 269°
2026-05-08 07:39 54.01740 -16.06748 36138 ft 420 kts 270°
2026-05-08 07:39 54.01854 -16.16703 36142 ft 420 kts 269°
2026-05-08 07:40 54.01959 -16.26581 36140 ft 421 kts 269°
2026-05-08 07:40 54.02057 -16.36535 36142 ft 421 kts 269°
2026-05-08 07:41 54.02147 -16.46482 36142 ft 421 kts 269°
2026-05-08 07:41 54.02228 -16.56447 36148 ft 421 kts 269°
2026-05-08 07:42 54.02302 -16.66406 36153 ft 421 kts 269°
2026-05-08 07:42 54.02366 -16.76358 36153 ft 421 kts 269°
2026-05-08 07:43 54.02423 -16.86243 36149 ft 420 kts 269°
2026-05-08 07:43 54.02471 -16.96188 36153 ft 420 kts 269°
2026-05-08 07:44 54.02511 -17.05983 36152 ft 420 kts 269°
2026-05-08 07:44 54.02543 -17.15915 36153 ft 420 kts 269°
2026-05-08 07:45 54.02567 -17.25875 36172 ft 421 kts 269°
2026-05-08 07:45 54.02583 -17.35777 36166 ft 421 kts 269°
2026-05-08 07:46 54.02591 -17.45748 36163 ft 422 kts 269°
2026-05-08 07:46 54.02590 -17.55742 36172 ft 422 kts 269°
2026-05-08 07:47 54.02581 -17.65730 36164 ft 422 kts 269°
2026-05-08 07:47 54.02564 -17.75731 36167 ft 423 kts 269°
2026-05-08 07:48 54.02538 -17.85731 36170 ft 422 kts 269°
2026-05-08 07:48 54.02505 -17.95741 36178 ft 423 kts 269°
2026-05-08 07:49 54.02463 -18.05577 36172 ft 423 kts 269°
2026-05-08 07:49 54.02413 -18.15516 36173 ft 423 kts 269°
2026-05-08 07:50 54.02354 -18.25524 36184 ft 423 kts 269°
2026-05-08 07:50 54.02288 -18.35529 36178 ft 423 kts 269°
2026-05-08 07:51 54.02213 -18.45545 36186 ft 424 kts 269°
2026-05-08 07:51 54.02129 -18.55572 36187 ft 424 kts 269°
2026-05-08 07:52 54.02037 -18.65601 36189 ft 424 kts 269°
2026-05-08 07:52 54.01937 -18.75618 36183 ft 424 kts 269°
2026-05-08 07:53 54.01828 -18.85583 36190 ft 424 kts 269°
2026-05-08 07:53 54.01711 -18.95623 36189 ft 424 kts 269°
2026-05-08 07:54 54.01588 -19.05484 36192 ft 426 kts 269°
2026-05-08 07:54 54.01454 -19.15561 36205 ft 426 kts 269°
2026-05-08 07:55 54.01312 -19.25586 36185 ft 426 kts 269°
2026-05-08 07:55 54.01161 -19.35673 36203 ft 426 kts 270°
2026-05-08 07:56 54.01001 -19.45774 36203 ft 427 kts 269°
2026-05-08 07:56 54.00833 -19.55873 36200 ft 428 kts 270°
2026-05-08 07:57 54.00656 -19.65991 36205 ft 428 kts 269°
2026-05-08 07:57 54.00470 -19.76113 36205 ft 428 kts 269°
2026-05-08 07:58 54.00278 -19.86164 36190 ft 428 kts 270°
2026-05-08 07:58 54.00077 -19.96276 36210 ft 428 kts 270°
2026-05-08 07:59 53.99701 -20.06203 36218 ft 429 kts 266°
2026-05-08 07:59 53.99103 -20.16307 36215 ft 430 kts 266°
2026-05-08 08:00 53.98484 -20.26449 36215 ft 431 kts 265°
2026-05-08 08:00 53.97871 -20.36588 36223 ft 432 kts 266°
2026-05-08 08:01 53.97263 -20.46671 36214 ft 432 kts 267°
2026-05-08 08:01 53.96645 -20.56823 36232 ft 432 kts 266°
2026-05-08 08:02 53.96016 -20.67006 36221 ft 433 kts 266°
2026-05-08 08:02 53.95377 -20.77199 36233 ft 434 kts 266°
2026-05-08 08:03 53.94729 -20.87398 36222 ft 434 kts 266°
2026-05-08 08:03 53.94072 -20.97599 36219 ft 434 kts 266°
2026-05-08 08:04 53.93421 -21.07570 36228 ft 435 kts 266°
2026-05-08 08:04 53.92745 -21.17799 36234 ft 436 kts 266°
2026-05-08 08:05 53.92175 -21.26323 36235 ft 437 kts 266°
2026-05-08 08:05 53.91480 -21.36593 36238 ft 439 kts 266°
2026-05-08 08:06 53.90773 -21.46887 36229 ft 439 kts 266°
2026-05-08 08:06 53.90057 -21.57187 36230 ft 440 kts 266°
2026-05-08 08:07 53.89337 -21.67420 36240 ft 440 kts 266°
2026-05-08 08:07 53.88604 -21.77714 36242 ft 440 kts 266°
2026-05-08 08:08 53.87863 -21.87999 36242 ft 440 kts 266°
2026-05-08 08:08 53.87111 -21.98291 36245 ft 439 kts 266°
2026-05-08 08:09 53.86365 -22.08400 36249 ft 439 kts 266°
2026-05-08 08:09 53.85598 -22.18661 36247 ft 439 kts 266°
2026-05-08 08:10 53.84822 -22.28912 36253 ft 438 kts 266°
2026-05-08 08:10 53.84038 -22.39162 36253 ft 438 kts 266°
2026-05-08 08:11 53.83251 -22.49331 36254 ft 438 kts 266°
2026-05-08 08:11 53.82451 -22.59559 36244 ft 438 kts 266°
2026-05-08 08:12 53.81641 -22.69791 36251 ft 438 kts 266°
2026-05-08 08:12 53.80823 -22.80021 36264 ft 439 kts 266°
2026-05-08 08:13 53.79995 -22.90266 36262 ft 440 kts 266°
2026-05-08 08:13 53.79174 -23.00301 36267 ft 441 kts 266°
2026-05-08 08:14 53.78325 -23.10563 36257 ft 441 kts 266°
2026-05-08 08:14 53.77468 -23.20829 36268 ft 441 kts 266°
2026-05-08 08:15 53.76599 -23.31120 36273 ft 442 kts 266°
2026-05-08 08:15 53.75721 -23.41410 36275 ft 442 kts 266°
2026-05-08 08:16 53.74840 -23.51634 36274 ft 442 kts 266°
2026-05-08 08:16 53.73943 -23.61921 36265 ft 442 kts 266°
2026-05-08 08:17 53.73040 -23.72175 36283 ft 441 kts 266°
2026-05-08 08:17 53.72129 -23.82430 36280 ft 441 kts 266°
2026-05-08 08:18 53.71210 -23.92668 36286 ft 441 kts 266°
2026-05-08 08:18 53.70304 -24.02664 36287 ft 441 kts 266°